Showing default

FLOCK 4H 16, 66719

Orbit data source: Space-Track

FLOCK 4H 16, 66719 is a payload satellite owned by Planet (US) in SSO that was launched on Fri, 28 Nov 2025 UTC via an FALCON 9 launch vehicle from the Air Force Western Test Range (AFWTR). Payload-class satellites include a variety of spacecraft equipped with specific instruments for various scientific and technological missions. These include communications satellites like Starlink; space stations such as the ISS; scientific satellites like the Hubble; Earth observation satellites from companies like Planet Labs, Umbra, and HawkEye 360; GPS; miniature CubeSats for education and research; and military/defense satellites.

Loading next visibility...
Identifier
66719, 2025-276BF
Orbit
SSO
Country
Flag of USUS
Related business
Manufacturer
Planet
Mission
Operational Commercial Imaging
Bus & Motor
CUBESAT 3U, Unknown motor
Mass
5.7 kg wet, 5.7 kg dry
Launch date (UTC)
2025-11-28 (9 months ago)
Launch vehicle
FALCON 9
Launch site
Air Force Western Test Range (AFWTR)
Object type
Payload
Rocket body
Debris
Shape & HBR
Box + 2 Pan, 1.0 m
Radar Cross Section
0.072 m², Medium (>0.1 m² and < 1m²)

Expand to show TLE details & history
Last TLE update: 19 hours ago

TLE from 19 hours ago
0 FLOCK 4H 16
1 66719U 25276BF  26238.19237248  .00005949  00000-0  27435-3 0  9999
2 66719  97.4195 310.6670 0005979 113.4807 246.7058 15.20607874 41055
Epoch: 2026-08-26T04:37Z
TLE epoch observation values (Epoch: 2026-08-26T04:37:00.982Z)
Latitude
0.00005°
Longitude
-93.036°
Altitude
508.726 km
Speed
7.609 km/s
True Right ascension
20h 42m 40s
True Declination
0° 00' 00"
Sunlit
Object was in full shadow at epoch
Visualization orbit readout
Latitude
Unknown
Longitude
Unknown
Altitude
Unknown
Speed
Unknown
Apparent Right ascension
Unknown
Apparent Declination
Unknown
Sunlit
N/A
Visualization observer readout
Local Sidereal Time
15:14:46
Azimuth
Unknown
Elevation
Unknown
Doppler factor
Unknown
Orbital elements
Apogee altitude
505.084 km
Perigee altitude
496.858 km
Semi-major axis
6,879.108 km
Eccentricity
0.0006
Inclination
97.4195°
RAAN
310.667°
Arg. of periapsis
113.4807°
True anomaly
246.64289°
Mean anomaly
246.7058°
Eccentric anomaly
246.67434°
Mean motion
3.80404 °/min
Orbital period
94.64 mins
BSTAR
0.00027435
Loading maneuver chart data...
Computing Atmospheric mass density...
Loading historical data...
Loading historical data...
Loading historical data...
Loading historical data...
Loading historical data...
Loading historical data...
Loading historical data...

Documentation

Showing up to 5 results
|